,,,PA_Meas_PMT16A,,PR_Meas_QMR101_102,,RH_Meas_QMH101,,SR_Meas_QMS101,,TA_Meas_QMH101,,GenWind,,GenWind,
date,time,status,PA,status,PR,status,RH,status,SR,status,TA,status,DirAvg,status,SpdAvg,
2010-12-04, 00:00:04,VALID,1007.22,VALID,0,VALID,102.955,VALID,0,VALID,24.8244,VALID,78,VALID,0,
2010-12-04, 00:01:04,VALID,1007.21,VALID,0,VALID,103.085,VALID,0,VALID,24.764,VALID,78,VALID,0,
2010-12-04, 00:02:04,VALID,1007.19,VALID,0,VALID,103.115,VALID,0,VALID,24.7464,VALID,76,VALID,0.00898437,
2010-12-04, 00:03:04,VALID,1007.15,VALID,0,VALID,103.108,VALID,0,VALID,24.6666,VALID,50,VALID,0.459766,
2010-12-04, 00:04:04,VALID,1007.14,VALID,0,VALID,103.138,VALID,0,VALID,24.6471,VALID,50,VALID,0,
2010-12-04, 00:05:04,VALID,1007.1,VALID,0,VALID,103.199,VALID,0,VALID,24.6276,VALID,50,VALID,0,
2010-12-04, 00:06:04,VALID,1007.1,VALID,0,VALID,103.245,VALID,0,VALID,24.6081,VALID,50,VALID,0,
2010-12-04, 00:07:04,VALID,1007.08,VALID,0,VALID,103.329,VALID,0,VALID,24.5905,VALID,50,VALID,0,
2010-12-04, 00:08:04,VALID,1007.06,VALID,0,VALID,103.413,VALID,0,VALID,24.5691,VALID,50,VALID,0,
2010-12-04, 00:09:04,VALID,1007.07,VALID,0,VALID,103.466,VALID,0,VALID,24.5728,VALID,50,VALID,0,
2010-12-04, 00:10:04,VALID,1007.05,VALID,0,VALID,103.474,VALID,0,VALID,24.532,VALID,50,VALID,0,
2010-12-04, 00:11:04,VALID,1007.03,VALID,0,VALID,103.52,VALID,0,VALID,24.532,VALID,50,VALID,0,
2010-12-04, 00:12:04,VALID,1007.01,VALID,0,VALID,103.573,VALID,0,VALID,24.5533,VALID,50,VALID,0,
2010-12-04, 00:13:04,VALID,1007,VALID,0,VALID,103.626,VALID,0,VALID,24.5515,VALID,50,VALID,0,
2010-12-04, 00:14:04,VALID,1007,VALID,0,VALID,103.657,VALID,0,VALID,24.5728,VALID,50,VALID,0,
2010-12-04, 00:15:04,VALID,1006.99,VALID,0,VALID,103.642,VALID,0,VALID,24.5533,VALID,124,VALID,0,
2010-12-04, 00:16:04,VALID,1007,VALID,0,VALID,103.649,VALID,0,VALID,24.532,VALID,199,VALID,0,
2010-12-04, 00:17:04,VALID,1007.02,VALID,0,VALID,103.626,VALID,0,VALID,24.532,VALID,199,VALID,0,
2010-12-04, 00:18:04,VALID,1007.02,VALID,0,VALID,103.619,VALID,0,VALID,24.5533,VALID,199,VALID,0,
2010-12-04, 00:19:04,VALID,1007.04,VALID,0,VALID,103.626,VALID,0,VALID,24.5533,VALID,199,VALID,0,
2010-12-04, 00:20:04,VALID,1007.06,VALID,0,VALID,103.649,VALID,0,VALID,24.5728,VALID,199,VALID,0,
2010-12-04, 00:21:04,VALID,1007.07,VALID,0,VALID,103.626,VALID,0,VALID,24.5923,VALID,227,VALID,0.126953,
2010-12-04, 00:22:04,VALID,1007.07,VALID,0,VALID,103.611,VALID,0,VALID,24.5923,VALID,227,VALID,0.455078,
2010-12-04, 00:23:04,VALID,1007.07,VALID,0,VALID,103.581,VALID,0,VALID,24.6099,VALID,208,VALID,0.465625,
2010-12-04, 00:24:04,VALID,1007.08,VALID,0,VALID,103.558,VALID,0,VALID,24.6666,VALID,205,VALID,0.434375,
2010-12-04, 00:25:04,VALID,1007.05,VALID,0,VALID,103.512,VALID,0,VALID,24.7269,VALID,217,VALID,0.1625,
2010-12-04, 00:26:04,VALID,1007.04,VALID,0,VALID,103.451,VALID,0.105969,VALID,24.7464,VALID,238,VALID,0,
2010-12-04, 00:27:04,VALID,1007.04,VALID,0,VALID,103.359,VALID,0,VALID,24.764,VALID,238,VALID,0.210156,
2010-12-04, 00:28:04,VALID,1007.03,VALID,0,VALID,103.268,VALID,0,VALID,24.8049,VALID,229,VALID,0.610156,
2010-12-04, 00:29:04,VALID,1007,VALID,0,VALID,103.192,VALID,0,VALID,24.842,VALID,200,VALID,0.801172,
2010-12-04, 00:30:04,VALID,1006.99,VALID,0,VALID,103.054,VALID,0.105969,VALID,24.8615,VALID,198,VALID,0.746875,
2010-12-04, 00:31:04,VALID,1006.98,VALID,0,VALID,102.94,VALID,0,VALID,24.9023,VALID,202,VALID,0.942578,
2010-12-04, 00:32:04,VALID,1006.98,VALID,0,VALID,102.803,VALID,0,VALID,24.9199,VALID,203,VALID,0.888672,
2010-12-04, 00:33:04,VALID,1006.94,VALID,0,VALID,102.719,VALID,0,VALID,24.9413,VALID,194,VALID,0.812891,
2010-12-04, 00:34:04,VALID,1006.91,VALID,0,VALID,102.765,VALID,0.105969,VALID,24.9608,VALID,203,VALID,0.0382813,
2010-12-04, 00:35:04,VALID,1006.89,VALID,0,VALID,102.772,VALID,0,VALID,24.9394,VALID,169,VALID,0.833594,
2010-12-04, 00:36:04,VALID,1006.89,VALID,0,VALID,102.803,VALID,0,VALID,24.9589,VALID,185,VALID,0.745703,
2010-12-04, 00:37:04,VALID,1006.84,VALID,0,VALID,102.803,VALID,0.105969,VALID,24.9979,VALID,194,VALID,1.13789,
2010-12-04, 00:38:04,VALID,1006.85,VALID,0,VALID,102.841,VALID,0,VALID,25.0193,VALID,219,VALID,0.737109,
2010-12-04, 00:39:04,VALID,1006.79,VALID,0,VALID,102.849,VALID,0,VALID,25.0174,VALID,299,VALID,2.12148,
2010-12-04, 00:40:04,VALID,1006.81,VALID,0,VALID,102.788,VALID,0,VALID,25.0564,VALID,209,VALID,1.31641,
2010-12-04, 00:41:04,VALID,1006.78,VALID,0,VALID,102.551,VALID,0.105969,VALID,25.0778,VALID,236,VALID,1.68086,
2010-12-04, 00:42:04,VALID,1006.74,VALID,0,VALID,102.406,VALID,0,VALID,25.1167,VALID,260,VALID,0.38125,
2010-12-04, 00:43:04,VALID,1006.73,VALID,0,VALID,102.322,VALID,0,VALID,25.1148,VALID,296,VALID,0.467187,
2010-12-04, 00:44:04,VALID,1006.68,VALID,0,VALID,102.17,VALID,0,VALID,25.1362,VALID,221,VALID,0.776172,
2010-12-04, 00:45:04,VALID,1006.65,VALID,0,VALID,102.238,VALID,0,VALID,25.1343,VALID,210,VALID,0.687891,
2010-12-04, 00:46:04,VALID,1006.63,VALID,0,VALID,102.208,VALID,0,VALID,25.1362,VALID,235,VALID,1.21211,
2010-12-04, 00:47:04,VALID,1006.59,VALID,0,VALID,102.261,VALID,0,VALID,25.1148,VALID,218,VALID,0.499219,
2010-12-04, 00:48:04,VALID,1006.55,VALID,0,VALID,102.147,VALID,0,VALID,25.1148,VALID,220,VALID,1.10742,
2010-12-04, 00:49:04,VALID,1006.54,VALID,0,VALID,102.185,VALID,0.105969,VALID,25.1557,VALID,226,VALID,0.548437,
2010-12-04, 00:50:04,VALID,1006.52,VALID,0,VALID,102.139,VALID,0,VALID,25.1362,VALID,219,VALID,0.696094,
2010-12-04, 00:51:04,VALID,1006.5,VALID,0,VALID,102.238,VALID,0,VALID,25.1557,VALID,224,VALID,0.298828,
2010-12-04, 00:52:04,VALID,1006.46,VALID,0,VALID,102.238,VALID,0,VALID,25.1343,VALID,288,VALID,0.3,
2010-12-04, 00:53:04,VALID,1006.46,VALID,0,VALID,102.185,VALID,0,VALID,25.1557,VALID,221,VALID,0.635938,
2010-12-04, 00:54:04,VALID,1006.44,VALID,0,VALID,101.911,VALID,0,VALID,25.1148,VALID,245,VALID,0.649219,
2010-12-04, 00:55:04,VALID,1006.43,VALID,0,VALID,101.613,VALID,0,VALID,25.1362,VALID,294,VALID,1.13008,
2010-12-04, 00:56:04,VALID,1006.39,VALID,0,VALID,101.491,VALID,0,VALID,25.1362,VALID,232,VALID,0.384766,
2010-12-04, 00:57:04,VALID,1006.4,VALID,0,VALID,101.27,VALID,0,VALID,25.0954,VALID,265,VALID,0.784766,
2010-12-04, 00:58:04,VALID,1006.37,VALID,0,VALID,100.324,VALID,0.105969,VALID,25.0954,VALID,248,VALID,0.830078,
2010-12-04, 00:59:04,VALID,1006.37,VALID,0,VALID,96.8471,VALID,0,VALID,25.0973,VALID,262,VALID,1.43984,
2010-12-04, 01:00:04,VALID,1006.37,VALID,0,VALID,96.9386,VALID,0,VALID,25.0778,VALID,235,VALID,0.469531,
2010-12-04, 01:01:04,VALID,1006.34,VALID,0,VALID,96.5649,VALID,0,VALID,25.0564,VALID,214,VALID,1.56328,
2010-12-04, 01:02:04,VALID,1006.33,VALID,0,VALID,97.5258,VALID,0.105969,VALID,25.0583,VALID,220,VALID,0.568359,
2010-12-04, 01:03:04,VALID,1006.32,VALID,0,VALID,98.8374,VALID,0,VALID,25.0174,VALID,265,VALID,0.454297,
2010-12-04, 01:04:04,VALID,1006.32,VALID,0,VALID,99.0509,VALID,0.105969,VALID,25.0174,VALID,265,VALID,0.802344,
2010-12-04, 01:05:04,VALID,1006.31,VALID,0,VALID,99.2873,VALID,0.105969,VALID,24.9979,VALID,259,VALID,0.809766,
2010-12-04, 01:06:04,VALID,1006.29,VALID,0,VALID,99.8059,VALID,0,VALID,25.0193,VALID,249,VALID,0.346875,
2010-12-04, 01:07:04,VALID,1006.26,VALID,0,VALID,99.4932,VALID,0.105969,VALID,24.9589,VALID,234,VALID,0.679688,
2010-12-04, 01:08:04,VALID,1006.28,VALID,0,VALID,99.7372,VALID,0,VALID,24.9784,VALID,241,VALID,0.495703,
2010-12-04, 01:09:04,VALID,1006.29,VALID,0,VALID,99.5771,VALID,0.105969,VALID,24.9803,VALID,225,VALID,1.00781,
2010-12-04, 01:10:04,VALID,1006.28,VALID,0,VALID,99.8669,VALID,0.105969,VALID,24.9394,VALID,290,VALID,1.26719,
2010-12-04, 01:11:04,VALID,1006.31,VALID,0,VALID,100.019,VALID,0.105969,VALID,24.9199,VALID,265,VALID,0.338672,
2010-12-04, 01:12:04,VALID,1006.3,VALID,0,VALID,100.065,VALID,0,VALID,24.9004,VALID,236,VALID,1.05469,
2010-12-04, 01:13:04,VALID,1006.3,VALID,0,VALID,100.408,VALID,0.105969,VALID,24.9004,VALID,241,VALID,0.132422,
2010-12-04, 01:14:04,VALID,1006.27,VALID,0,VALID,100.744,VALID,0,VALID,24.9023,VALID,228,VALID,0,
2010-12-04, 01:15:04,VALID,1006.22,VALID,0,VALID,100.805,VALID,0,VALID,24.8615,VALID,293,VALID,0.941406,
2010-12-04, 01:16:04,VALID,1006.22,VALID,0,VALID,100.904,VALID,0,VALID,24.8828,VALID,232,VALID,0.410156,
2010-12-04, 01:17:04,VALID,1006.19,VALID,0,VALID,101.018,VALID,0,VALID,24.8438,VALID,220,VALID,0.651953,
2010-12-04, 01:18:04,VALID,1006.16,VALID,0,VALID,100.988,VALID,0,VALID,24.803,VALID,240,VALID,0.942187,
2010-12-04, 01:19:04,VALID,1006.13,VALID,0,VALID,101.194,VALID,0,VALID,24.803,VALID,221,VALID,0.634766,
2010-12-04, 01:20:04,VALID,1006.1,VALID,0,VALID,101.026,VALID,0.105969,VALID,24.7835,VALID,217,VALID,1.43438,
2010-12-04, 01:21:04,VALID,1006.11,VALID,0,VALID,101.186,VALID,0,VALID,24.7835,VALID,299,VALID,0.249609,
2010-12-04, 01:22:04,VALID,1006.08,VALID,0,VALID,101.209,VALID,0,VALID,24.764,VALID,225,VALID,0.703125,
2010-12-04, 01:23:04,VALID,1006.07,VALID,0,VALID,101.392,VALID,0,VALID,24.764,VALID,225,VALID,0.842578,
2010-12-04, 01:24:04,VALID,1006.08,VALID,0,VALID,101.278,VALID,0,VALID,24.7445,VALID,227,VALID,0.93125,
2010-12-04, 01:25:04,VALID,1006.05,VALID,0,VALID,101.476,VALID,0,VALID,24.7659,VALID,278,VALID,0.191016,
2010-12-04, 01:26:04,VALID,1006.04,VALID,0,VALID,101.232,VALID,0.105969,VALID,24.7055,VALID,221,VALID,2.11992,
2010-12-04, 01:27:04,VALID,1006.01,VALID,0,VALID,100.942,VALID,0,VALID,24.686,VALID,231,VALID,1.58086,
2010-12-04, 01:28:04,VALID,1006,VALID,0,VALID,101.178,VALID,0,VALID,24.7269,VALID,262,VALID,1.41641,
2010-12-04, 01:29:04,VALID,1006,VALID,0,VALID,101.125,VALID,0,VALID,24.7074,VALID,277,VALID,1.01953,
2010-12-04, 01:30:04,VALID,1006.01,VALID,0,VALID,101.392,VALID,0,VALID,24.6879,VALID,222,VALID,0.554688,
2010-12-04, 01:31:04,VALID,1006.01,VALID,0,VALID,101.476,VALID,0,VALID,24.6879,VALID,232,VALID,0.831641,
2010-12-04, 01:32:04,VALID,1005.99,VALID,0,VALID,101.545,VALID,0,VALID,24.6471,VALID,273,VALID,0.857813,
2010-12-04, 01:33:04,VALID,1005.99,VALID,0,VALID,101.659,VALID,0,VALID,24.6684,VALID,302,VALID,1.45195,
2010-12-04, 01:34:04,VALID,1005.96,VALID,0,VALID,101.811,VALID,0,VALID,24.6471,VALID,245,VALID,0.739844,
2010-12-04, 01:35:04,VALID,1005.92,VALID,0,VALID,101.773,VALID,0,VALID,24.6489,VALID,252,VALID,0.565625,
2010-12-04, 01:36:04,VALID,1005.92,VALID,0,VALID,101.834,VALID,0,VALID,24.6489,VALID,242,VALID,0.403125,
2010-12-04, 01:37:04,VALID,1005.9,VALID,0,VALID,101.979,VALID,0,VALID,24.6294,VALID,275,VALID,0.426562,
2010-12-04, 01:38:04,VALID,1005.91,VALID,0,VALID,101.918,VALID,0,VALID,24.6081,VALID,248,VALID,1.12812,
2010-12-04, 01:39:04,VALID,1005.88,VALID,0,VALID,102.01,VALID,0,VALID,24.6081,VALID,279,VALID,0.592578,
2010-12-04, 01:40:04,VALID,1005.89,VALID,0,VALID,102.101,VALID,0,VALID,24.6099,VALID,278,VALID,0.905078,
2010-12-04, 01:41:04,VALID,1005.9,VALID,0,VALID,102.109,VALID,0,VALID,24.5691,VALID,215,VALID,1.14844,
2010-12-04, 01:42:04,VALID,1005.9,VALID,0,VALID,102.185,VALID,0,VALID,24.5905,VALID,290,VALID,0.922266,
2010-12-04, 01:43:04,VALID,1005.91,VALID,0,VALID,102.261,VALID,0,VALID,24.5905,VALID,279,VALID,0.562109,
2010-12-04, 01:44:04,VALID,1005.92,VALID,0,VALID,102.338,VALID,0,VALID,24.5691,VALID,233,VALID,0.301953,
2010-12-04, 01:45:04,VALID,1005.93,VALID,0,VALID,102.467,VALID,0,VALID,24.5905,VALID,251,VALID,0.357812,
2010-12-04, 01:46:04,VALID,1005.95,VALID,0,VALID,102.536,VALID,0,VALID,24.5905,VALID,316,VALID,1.15156,
2010-12-04, 01:47:04,VALID,1005.94,VALID,0,VALID,102.605,VALID,0,VALID,24.571,VALID,218,VALID,0.701172,
2010-12-04, 01:48:04,VALID,1005.94,VALID,0,VALID,102.62,VALID,0,VALID,24.571,VALID,276,VALID,0.422266,
2010-12-04, 01:49:04,VALID,1005.93,VALID,0,VALID,102.643,VALID,0,VALID,24.571,VALID,306,VALID,0.65,
2010-12-04, 01:50:04,VALID,1005.92,VALID,0,VALID,102.681,VALID,0,VALID,24.5905,VALID,223,VALID,0.933984,
2010-12-04, 01:51:04,VALID,1005.9,VALID,0,VALID,102.696,VALID,0,VALID,24.5905,VALID,262,VALID,0.597266,
2010-12-04, 01:52:04,VALID,1005.86,VALID,0,VALID,102.757,VALID,0,VALID,24.5905,VALID,256,VALID,0.998828,
2010-12-04, 01:53:04,VALID,1005.86,VALID,0,VALID,102.772,VALID,0,VALID,24.5905,VALID,272,VALID,0.85625,
2010-12-04, 01:54:04,VALID,1005.83,VALID,0,VALID,102.757,VALID,0,VALID,24.5905,VALID,277,VALID,0.925781,
2010-12-04, 01:55:04,VALID,1005.81,VALID,0,VALID,102.772,VALID,0,VALID,24.5905,VALID,248,VALID,0.4375,
2010-12-04, 01:56:04,VALID,1005.8,VALID,0,VALID,102.81,VALID,0,VALID,24.5905,VALID,321,VALID,0.590625,
2010-12-04, 01:57:04,VALID,1005.78,VALID,0,VALID,102.826,VALID,0,VALID,24.5905,VALID,230,VALID,0.241797,
2010-12-04, 01:58:04,VALID,1005.77,VALID,0,VALID,102.849,VALID,0,VALID,24.6099,VALID,313,VALID,0.705469,
2010-12-04, 01:59:04,VALID,1005.73,VALID,0,VALID,102.772,VALID,0,VALID,24.5905,VALID,228,VALID,0.575391,
2010-12-04, 02:00:04,VALID,1005.71,VALID,0,VALID,102.757,VALID,0,VALID,24.5691,VALID,261,VALID,0.446875,
2010-12-04, 02:01:04,VALID,1005.7,VALID,0,VALID,102.688,VALID,0.105969,VALID,24.6099,VALID,235,VALID,0.529688,
2010-12-04, 02:02:04,VALID,1005.63,VALID,0,VALID,102.284,VALID,0,VALID,24.5905,VALID,236,VALID,2.12539,
2010-12-04, 02:03:04,VALID,1005.62,VALID,0,VALID,101.994,VALID,0,VALID,24.6099,VALID,263,VALID,1.1207,
2010-12-04, 02:04:04,VALID,1005.59,VALID,0,VALID,101.926,VALID,0,VALID,24.6294,VALID,230,VALID,0.484766,
2010-12-04, 02:05:04,VALID,1005.59,VALID,0,VALID,101.895,VALID,0,VALID,24.5886,VALID,252,VALID,0.130859,
2010-12-04, 02:06:04,VALID,1005.58,VALID,0,VALID,101.911,VALID,0,VALID,24.6099,VALID,311,VALID,0.249219,
2010-12-04, 02:07:04,VALID,1005.53,VALID,0,VALID,101.758,VALID,0,VALID,24.5886,VALID,306,VALID,1.21445,
2010-12-04, 02:08:04,VALID,1005.54,VALID,0,VALID,101.75,VALID,0,VALID,24.6081,VALID,266,VALID,1.05273,
2010-12-04, 02:09:04,VALID,1005.52,VALID,0,VALID,101.705,VALID,0.105969,VALID,24.6099,VALID,266,VALID,1.22656,
2010-12-04, 02:10:04,VALID,1005.56,VALID,0,VALID,101.735,VALID,0,VALID,24.6099,VALID,276,VALID,0.435156,
2010-12-04, 02:11:04,VALID,1005.54,VALID,0,VALID,101.796,VALID,0.105969,VALID,24.6099,VALID,306,VALID,0.878906,
2010-12-04, 02:12:04,VALID,1005.55,VALID,0,VALID,101.827,VALID,0,VALID,24.6081,VALID,294,VALID,1.22383,
2010-12-04, 02:13:04,VALID,1005.53,VALID,0,VALID,101.583,VALID,0.105969,VALID,24.5886,VALID,317,VALID,1.29141,
2010-12-04, 02:14:04,VALID,1005.53,VALID,0,VALID,101.59,VALID,0,VALID,24.6294,VALID,288,VALID,0.688672,
2010-12-04, 02:15:04,VALID,1005.5,VALID,0,VALID,101.514,VALID,0,VALID,24.5905,VALID,309,VALID,1.25937,
2010-12-04, 02:16:04,VALID,1005.46,VALID,0,VALID,101.529,VALID,0,VALID,24.5905,VALID,264,VALID,1.04531,
2010-12-04, 02:17:04,VALID,1005.45,VALID,0,VALID,101.575,VALID,0,VALID,24.5886,VALID,312,VALID,0.524609,
2010-12-04, 02:18:04,VALID,1005.45,VALID,0,VALID,101.392,VALID,0,VALID,24.5905,VALID,279,VALID,1.78359,
2010-12-04, 02:19:04,VALID,1005.42,VALID,0,VALID,101.407,VALID,0,VALID,24.5496,VALID,287,VALID,0.552734,
2010-12-04, 02:20:04,VALID,1005.42,VALID,0,VALID,101.346,VALID,0,VALID,24.571,VALID,320,VALID,1.04766,
2010-12-04, 02:21:04,VALID,1005.4,VALID,0,VALID,101.171,VALID,0,VALID,24.5515,VALID,299,VALID,1.78242,
2010-12-04, 02:22:04,VALID,1005.39,VALID,0,VALID,101.323,VALID,0,VALID,24.5301,VALID,341,VALID,0.996094,
2010-12-04, 02:23:04,VALID,1005.35,VALID,0,VALID,101.575,VALID,0,VALID,24.5515,VALID,295,VALID,0.25,
2010-12-04, 02:24:04,VALID,1005.34,VALID,0,VALID,101.628,VALID,0,VALID,24.5515,VALID,334,VALID,0.853516,
2010-12-04, 02:25:04,VALID,1005.27,VALID,0,VALID,101.644,VALID,0,VALID,24.5125,VALID,299,VALID,0.796094,
2010-12-04, 02:26:04,VALID,1005.24,VALID,0,VALID,101.438,VALID,0,VALID,24.4522,VALID,313,VALID,1.46289,
2010-12-04, 02:27:04,VALID,1005.2,VALID,0,VALID,101.598,VALID,0,VALID,24.493,VALID,273,VALID,0.446875,
2010-12-04, 02:28:04,VALID,1005.16,VALID,0,VALID,101.705,VALID,0,VALID,24.4522,VALID,311,VALID,1.02539,
2010-12-04, 02:29:04,VALID,1005.18,VALID,0,VALID,101.773,VALID,0,VALID,24.4522,VALID,291,VALID,1.08789,
2010-12-04, 02:30:04,VALID,1005.17,VALID,0,VALID,101.834,VALID,0,VALID,24.4735,VALID,303,VALID,0.347656,
2010-12-04, 02:31:04,VALID,1005.16,VALID,0,VALID,101.972,VALID,0,VALID,24.454,VALID,303,VALID,0.133984,
2010-12-04, 02:32:04,VALID,1005.19,VALID,0,VALID,102.109,VALID,0,VALID,24.454,VALID,276,VALID,0.284375,
2010-12-04, 02:33:04,VALID,1005.15,VALID,0,VALID,102.17,VALID,0,VALID,24.454,VALID,304,VALID,1.25547,
2010-12-04, 02:34:04,VALID,1005.14,VALID,0,VALID,102.086,VALID,0,VALID,24.454,VALID,329,VALID,0.940234,
2010-12-04, 02:35:04,VALID,1005.16,VALID,0,VALID,102.139,VALID,0,VALID,24.4345,VALID,292,VALID,0,
2010-12-04, 02:36:04,VALID,1005.14,VALID,0,VALID,102.2,VALID,0,VALID,24.4345,VALID,311,VALID,0.298438,
2010-12-04, 02:37:04,VALID,1005.13,VALID,0,VALID,102.284,VALID,0,VALID,24.4345,VALID,255,VALID,0.773047,
2010-12-04, 02:38:04,VALID,1005.13,VALID,0,VALID,102.383,VALID,0,VALID,24.4345,VALID,266,VALID,0.0492188,
2010-12-04, 02:39:04,VALID,1005.11,VALID,0,VALID,102.376,VALID,0,VALID,24.4345,VALID,234,VALID,0.394531,
2010-12-04, 02:40:04,VALID,1005.1,VALID,0,VALID,102.383,VALID,0,VALID,24.415,VALID,310,VALID,0.908594,
2010-12-04, 02:41:04,VALID,1005.09,VALID,0,VALID,102.399,VALID,0,VALID,24.415,VALID,294,VALID,1.0875,
2010-12-04, 02:42:04,VALID,1005.06,VALID,0,VALID,102.49,VALID,0,VALID,24.415,VALID,283,VALID,0.296484,
2010-12-04, 02:43:04,VALID,1005.11,VALID,0,VALID,102.521,VALID,0,VALID,24.415,VALID,160,VALID,0.373047,
2010-12-04, 02:44:04,VALID,1005.11,VALID,0,VALID,102.559,VALID,0,VALID,24.4345,VALID,284,VALID,0.625781,
2010-12-04, 02:45:04,VALID,1005.11,VALID,0,VALID,102.551,VALID,0,VALID,24.4345,VALID,270,VALID,0.528516,
2010-12-04, 02:46:04,VALID,1005.09,VALID,0,VALID,102.559,VALID,0.105969,VALID,24.4132,VALID,263,VALID,0.458203,
2010-12-04, 02:47:04,VALID,1005.07,VALID,0,VALID,102.49,VALID,0,VALID,24.4345,VALID,292,VALID,0.995703,
2010-12-04, 02:48:04,VALID,1005.08,VALID,0,VALID,102.414,VALID,0,VALID,24.4132,VALID,308,VALID,0.849609,
2010-12-04, 02:49:04,VALID,1005.07,VALID,0,VALID,102.338,VALID,0,VALID,24.454,VALID,343,VALID,0.464453,
2010-12-04, 02:50:04,VALID,1005.08,VALID,0,VALID,102.246,VALID,0,VALID,24.4345,VALID,185,VALID,0.73125,
2010-12-04, 02:51:04,VALID,1005.09,VALID,0,VALID,101.857,VALID,0,VALID,24.454,VALID,307,VALID,0.644531,
2010-12-04, 02:52:04,VALID,1005.12,VALID,0,VALID,101.59,VALID,0.105969,VALID,24.4735,VALID,307,VALID,0.833594,
2010-12-04, 02:53:04,VALID,1005.15,VALID,0,VALID,101.011,VALID,0,VALID,24.4522,VALID,292,VALID,1.44805,
2010-12-04, 02:54:04,VALID,1005.12,VALID,0,VALID,100.942,VALID,0.105969,VALID,24.493,VALID,331,VALID,0.210547,
2010-12-04, 02:55:04,VALID,1005.15,VALID,0,VALID,100.721,VALID,0.105969,VALID,24.4911,VALID,269,VALID,0.633984,
2010-12-04, 02:56:04,VALID,1005.17,VALID,0,VALID,100.645,VALID,0,VALID,24.4911,VALID,220,VALID,0.247656,
2010-12-04, 02:57:04,VALID,1005.17,VALID,0,VALID,100.675,VALID,0.105969,VALID,24.4911,VALID,295,VALID,0.509375,
2010-12-04, 02:58:04,VALID,1005.17,VALID,0,VALID,100.591,VALID,0.105969,VALID,24.4911,VALID,329,VALID,0.321094,
2010-12-04, 02:59:04,VALID,1005.17,VALID,0,VALID,100.607,VALID,0.105969,VALID,24.4911,VALID,299,VALID,0.448438,
2010-12-04, 03:00:04,VALID,1005.18,VALID,0,VALID,100.416,VALID,0.105969,VALID,24.5106,VALID,305,VALID,0.848047,
2010-12-04, 03:01:04,VALID,1005.16,VALID,0,VALID,100.408,VALID,0.105969,VALID,24.5106,VALID,311,VALID,0.916406,
2010-12-04, 03:02:04,VALID,1005.18,VALID,0,VALID,100.363,VALID,0.105969,VALID,24.4911,VALID,298,VALID,0.584375,
2010-12-04, 03:03:04,VALID,1005.17,VALID,0,VALID,100.416,VALID,0,VALID,24.5106,VALID,278,VALID,0.713281,
2010-12-04, 03:04:04,VALID,1005.16,VALID,0,VALID,100.507,VALID,0.105969,VALID,24.5106,VALID,309,VALID,0.433984,
2010-12-04, 03:05:04,VALID,1005.18,VALID,0,VALID,100.576,VALID,0.105969,VALID,24.5125,VALID,301,VALID,0.789453,
2010-12-04, 03:06:04,VALID,1005.2,VALID,0,VALID,100.652,VALID,0.105969,VALID,24.5106,VALID,288,VALID,0.157031,
2010-12-04, 03:07:04,VALID,1005.18,VALID,0,VALID,100.759,VALID,0.105969,VALID,24.5106,VALID,284,VALID,0.163672,
2010-12-04, 03:08:04,VALID,1005.14,VALID,0,VALID,100.576,VALID,0.105969,VALID,24.4911,VALID,265,VALID,0.190234,
2010-12-04, 03:09:04,VALID,1005.13,VALID,0,VALID,100.698,VALID,0,VALID,24.4911,VALID,265,VALID,0.096875,
2010-12-04, 03:10:04,VALID,1005.11,VALID,0,VALID,100.69,VALID,0.105969,VALID,24.4911,VALID,215,VALID,0.952734,
2010-12-04, 03:11:04,VALID,1005.1,VALID,0,VALID,100.751,VALID,0.105969,VALID,24.5125,VALID,230,VALID,0.552734,
2010-12-04, 03:12:04,VALID,1005.12,VALID,0,VALID,100.751,VALID,0.105969,VALID,24.4911,VALID,240,VALID,0.173047,
2010-12-04, 03:13:04,VALID,1005.09,VALID,0,VALID,100.82,VALID,0.105969,VALID,24.4911,VALID,292,VALID,0.411719,
2010-12-04, 03:14:04,VALID,1005.1,VALID,0,VALID,100.721,VALID,0.105969,VALID,24.4911,VALID,264,VALID,0.274609,
2010-12-04, 03:15:04,VALID,1005.11,VALID,0,VALID,100.896,VALID,0.105969,VALID,24.5106,VALID,264,VALID,0.221875,
2010-12-04, 03:16:04,VALID,1005.07,VALID,0,VALID,100.919,VALID,0.211938,VALID,24.5106,VALID,245,VALID,0.289063,
2010-12-04, 03:17:04,VALID,1005.07,VALID,0,VALID,101.003,VALID,0.105969,VALID,24.5106,VALID,228,VALID,0.264062,
2010-12-04, 03:18:04,VALID,1005.08,VALID,0,VALID,100.82,VALID,0.105969,VALID,24.4911,VALID,292,VALID,0.844922,
2010-12-04, 03:19:04,VALID,1005.03,VALID,0,VALID,100.805,VALID,0.105969,VALID,24.4911,VALID,297,VALID,0.442187,
2010-12-04, 03:20:04,VALID,1005.02,VALID,0,VALID,100.683,VALID,0.105969,VALID,24.4911,VALID,262,VALID,0.843359,
2010-12-04, 03:21:04,VALID,1005,VALID,0,VALID,100.568,VALID,0.105969,VALID,24.4911,VALID,249,VALID,0.358594,
2010-12-04, 03:22:04,VALID,1004.98,VALID,0,VALID,100.454,VALID,0.105969,VALID,24.4911,VALID,255,VALID,0.525,
2010-12-04, 03:23:04,VALID,1004.96,VALID,0,VALID,100.485,VALID,0.105969,VALID,24.4911,VALID,261,VALID,0.907812,
2010-12-04, 03:24:04,VALID,1004.93,VALID,0,VALID,100.431,VALID,0.105969,VALID,24.493,VALID,217,VALID,1.04766,
2010-12-04, 03:25:04,VALID,1004.93,VALID,0,VALID,100.515,VALID,0,VALID,24.4911,VALID,246,VALID,0.625391,
2010-12-04, 03:26:04,VALID,1004.93,VALID,0,VALID,100.431,VALID,0.105969,VALID,24.4717,VALID,229,VALID,0.629297,
2010-12-04, 03:27:04,VALID,1004.92,VALID,0,VALID,100.393,VALID,0.105969,VALID,24.493,VALID,304,VALID,0.610547,
2010-12-04, 03:28:04,VALID,1004.94,VALID,0,VALID,100.561,VALID,0.105969,VALID,24.493,VALID,301,VALID,0.538672,
2010-12-04, 03:29:04,VALID,1004.96,VALID,0,VALID,100.629,VALID,0.105969,VALID,24.4717,VALID,253,VALID,0.162109,
2010-12-04, 03:30:04,VALID,1004.98,VALID,0,VALID,100.553,VALID,0.105969,VALID,24.4522,VALID,253,VALID,0.189453,
2010-12-04, 03:31:04,VALID,1004.98,VALID,0,VALID,100.591,VALID,0.105969,VALID,24.4735,VALID,228,VALID,0.403906,
2010-12-04, 03:32:04,VALID,1004.95,VALID,0,VALID,100.622,VALID,0,VALID,24.4522,VALID,299,VALID,0.864062,
2010-12-04, 03:33:04,VALID,1004.96,VALID,0,VALID,100.767,VALID,0.105969,VALID,24.4522,VALID,245,VALID,0.433203,
2010-12-04, 03:34:04,VALID,1004.96,VALID,0,VALID,100.782,VALID,0.105969,VALID,24.4327,VALID,204,VALID,0.392578,
2010-12-04, 03:35:04,VALID,1004.96,VALID,0,VALID,100.851,VALID,0.105969,VALID,24.4327,VALID,298,VALID,0.485547,
2010-12-04, 03:36:04,VALID,1004.98,VALID,0,VALID,100.858,VALID,0.105969,VALID,24.4327,VALID,304,VALID,0.64375,
2010-12-04, 03:37:04,VALID,1004.97,VALID,0,VALID,100.919,VALID,0.105969,VALID,24.4327,VALID,245,VALID,0.389453,
2010-12-04, 03:38:04,VALID,1004.97,VALID,0,VALID,100.873,VALID,0.105969,VALID,24.4132,VALID,298,VALID,0.827344,
2010-12-04, 03:39:04,VALID,1004.97,VALID,0,VALID,100.82,VALID,0.105969,VALID,24.4132,VALID,331,VALID,0.694141,
2010-12-04, 03:40:04,VALID,1004.99,VALID,0,VALID,100.919,VALID,0.105969,VALID,24.4132,VALID,292,VALID,0.586719,
2010-12-04, 03:41:04,VALID,1004.97,VALID,0,VALID,100.912,VALID,0.105969,VALID,24.3937,VALID,309,VALID,0.548437,
2010-12-04, 03:42:04,VALID,1004.99,VALID,0,VALID,100.988,VALID,0.105969,VALID,24.415,VALID,289,VALID,0.19375,